Regional Weather Roundup
Issued by NWS Northern Indiana

Home | Current Version | Previous Version | Text Only | Print | Product List | Glossary On
Versions: 1 2 3 4 5 6 7 8 9 10 11 12 13 14 15 16 17 18 19 20 21 22 23 24 25 26 27 28 29 30 31 32 33 34 35 36 37 38 39 40 41 42 43 44 45 46 47 48 49 50
000
ASUS43 KIWX 010810
RWRIWX

KIWX WEATHER ROUNDUP
NATIONAL WEATHER SERVICE NORTHERN INDIANA
400 AM EDT FRI AUG 01 2014

NOTE: "FAIR" INDICATES FEW OR NO CLOUDS BELOW 12,000 FEET WITH NO
SIGNIFICANT WEATHER AND/OR OBSTRUCTIONS TO VISIBILITY.

* THESE STATIONS ARE NOT UNDER NWS QUALITY CONTROL. THEY ALSO MAY NOT
  REPORT WEATHER SUCH AS PRECIPITATION OR FOG.

INZ001>027-010900-
NORTHERN INDIANA

CITY           SKY/WX    TMP DP  RH WIND       PRES   REMARKS
GARY*          PTCLDY    65  62  92 CALM      30.07R
VALPARAISO     CLEAR     62  59  90 SW3       30.07S
MICHIGAN CITY* CLEAR     61  61 100 CALM      30.06S
LAPORTE*       PTCLDY    58  58 100 CALM      30.08R FOG
KNOX*          CLEAR     60  58  91 SW5       30.07R
SOUTH BEND     PTCLDY    65  60  84 SW3       30.07S
GOSHEN         CLEAR     63  59  87 CALM      30.07R
MONTICELLO*    CLEAR     62  60  93 CALM      30.07S
LOGANSPORT*    CLEAR     57  55  94 S3        30.08S
ROCHESTER*     CLEAR     66  61  82 CALM      30.08S
WARSAW*        CLEAR     63  59  88 CALM      30.07S
ANGOLA*        MOCLDY    61  61 100 CALM      30.07S
FORT WAYNE     PTCLDY    62  58  86 SW5       30.08S
HUNTINGTON*    CLEAR     61  59  95 CALM      30.08S
PERU/GRISSOM   CLEAR     60  60 100 S5        30.08S
MARION*        CLEAR     56  56  97 CALM      30.09S

$$
INZ028>050-010900-
CENTRAL INDIANA

CITY           SKY/WX    TMP DP  RH WIND       PRES   REMARKS
LAFAYETTE      CLEAR     59  57  93 CALM      30.07S
KOKOMO*        CLEAR     59  57  94 CALM      30.09S
MUNCIE*        CLEAR     60  55  83 CALM      30.09S
INDIANAPOLIS   CLEAR     66  61  84 CALM      30.08S

$$
MIZ043>046-050>051-056>058-064>065-071>073-077>080-010900-
SOUTHWEST LOWER MICHIGAN

CITY           SKY/WX    TMP DP  RH WIND       PRES   REMARKS
BATTLE CREEK   CLEAR     63  58  83 SW6       30.06S
BENTON HARBOR  CLEAR     59  58  96 CALM      30.05R FOG
COLDWATER*     MOCLDY    65  61  87 W5        30.06S
HILLSDALE*     CLOUDY    64  62  96 CALM      30.06F
HOLLAND        CLEAR     63  59  87 S3        30.04S
GRAND RAPIDS   CLEAR     64  60  87 S7        30.04R
KALAMAZOO      CLEAR     62  58  86 SW5       30.05S
STURGIS*       CLEAR     61  61 100 CALM      30.06S
THREE RIVERS*  FAIR      62  61  96 S5        30.06S

$$
OHZ001>008-015>018-024>025-010900-
NORTHWEST OHIO

CITY           SKY/WX    TMP DP  RH WIND       PRES   REMARKS
WAUSEON*       MOCLDY    59  57  94 CALM      30.07S
DEFIANCE       PTCLDY    62  60  93 CALM      30.07S
FINDLAY        CLEAR     62  58  86 S3        30.07S
TOLEDO EXPRESS MOCLDY    60  59  96 CALM      30.06S
TOLEDO METCALF PTCLDY    62  58  86 S3        30.07S
LIMA           CLEAR     63  58  83 CALM      30.09S

$$
&&



USA.gov is the U.S. government's official web portal to all federal, state and local government web resources and services.